TimeEDT,TemperatureF,Dew PointF,Humidity,Sea Level PressureIn,VisibilityMPH,Wind Direction,Wind SpeedMPH,Gust SpeedMPH,PrecipitationIn,Events,Conditions,WindDirDegrees,DateUTC
12:15 AM,56.3,56.3,100,30.21,4.0,Calm,Calm,-,N/A,,Clear,0,2012-10-05 04:15:00
12:35 AM,56.3,56.1,99,30.21,4.0,Calm,Calm,-,N/A,,Clear,0,2012-10-05 04:35:00
12:55 AM,55.4,55.2,99,30.21,5.0,Calm,Calm,-,N/A,,Clear,0,2012-10-05 04:55:00
1:15 AM,54.7,54.5,99,30.21,3.0,Calm,Calm,-,N/A,,Clear,0,2012-10-05 05:15:00
1:35 AM,54.7,54.5,99,30.21,0.8,Calm,Calm,-,N/A,,Mist,0,2012-10-05 05:35:00
1:55 AM,54.5,54.3,99,30.21,2.0,Calm,Calm,-,N/A,,Clear,0,2012-10-05 05:55:00
2:15 AM,53.8,53.6,99,30.20,3.0,Calm,Calm,-,N/A,,Clear,0,2012-10-05 06:15:00
2:35 AM,53.6,53.6,100,30.20,4.0,Calm,Calm,-,N/A,,Clear,0,2012-10-05 06:35:00
2:55 AM,52.5,52.5,100,30.19,3.0,Calm,Calm,-,N/A,,Clear,0,2012-10-05 06:55:00
3:15 AM,52.2,52.2,100,30.19,2.0,Calm,Calm,-,N/A,,Clear,0,2012-10-05 07:15:00
3:35 AM,52.2,52.2,100,30.19,3.0,Calm,Calm,-,N/A,,Clear,0,2012-10-05 07:35:00
3:55 AM,52.0,52.0,100,30.19,4.0,Calm,Calm,-,N/A,,Clear,0,2012-10-05 07:55:00
4:15 AM,51.4,51.4,100,30.19,4.0,Calm,Calm,-,N/A,,Clear,0,2012-10-05 08:15:00
4:35 AM,50.7,50.7,100,30.19,3.0,Calm,Calm,-,N/A,,Clear,0,2012-10-05 08:35:00
4:55 AM,51.1,51.1,100,30.19,4.0,Calm,Calm,-,N/A,,Clear,0,2012-10-05 08:55:00
5:15 AM,50.4,50.4,100,30.19,5.0,Calm,Calm,-,N/A,,Clear,0,2012-10-05 09:15:00
5:35 AM,50.2,50.2,100,30.19,3.0,Calm,Calm,-,N/A,,Clear,0,2012-10-05 09:35:00
5:55 AM,49.6,49.6,100,30.20,4.0,Calm,Calm,-,N/A,,Clear,0,2012-10-05 09:55:00
6:15 AM,49.8,49.8,100,30.20,4.0,Calm,Calm,-,N/A,,Clear,0,2012-10-05 10:15:00
6:35 AM,49.5,49.5,100,30.19,4.0,Calm,Calm,-,N/A,,Clear,0,2012-10-05 10:35:00
6:55 AM,48.9,48.9,100,30.19,4.0,Calm,Calm,-,N/A,,Clear,0,2012-10-05 10:55:00
7:15 AM,49.5,49.5,100,30.20,5.0,Calm,Calm,-,N/A,,Clear,0,2012-10-05 11:15:00
7:35 AM,49.1,49.1,100,30.20,3.0,Calm,Calm,-,N/A,,Clear,0,2012-10-05 11:35:00
7:55 AM,49.8,49.8,100,30.20,3.0,Calm,Calm,-,N/A,,Clear,0,2012-10-05 11:55:00
8:15 AM,51.8,51.8,100,30.20,7.0,Calm,Calm,-,N/A,,Clear,0,2012-10-05 12:15:00
8:35 AM,54.9,54.9,100,30.21,10.0,Calm,Calm,-,N/A,,Clear,0,2012-10-05 12:35:00
8:55 AM,56.5,56.3,99,30.21,10.0,Calm,Calm,-,N/A,,Clear,0,2012-10-05 12:55:00
9:15 AM,58.6,57.4,96,30.21,10.0,Calm,Calm,-,N/A,,Clear,0,2012-10-05 13:15:00
9:35 AM,61.2,57.6,88,30.21,10.0,Calm,Calm,-,N/A,,Clear,0,2012-10-05 13:35:00
9:55 AM,63.3,58.3,84,30.21,7.0,Calm,Calm,-,N/A,,Clear,0,2012-10-05 13:55:00
10:15 AM,65.5,58.5,78,30.21,10.0,Calm,Calm,-,N/A,,Clear,0,2012-10-05 14:15:00
10:35 AM,67.6,59.0,74,30.21,10.0,Calm,Calm,-,N/A,,Clear,0,2012-10-05 14:35:00
10:55 AM,69.6,58.3,67,30.20,10.0,Calm,Calm,-,N/A,,Clear,0,2012-10-05 14:55:00
11:15 AM,71.4,58.3,63,30.20,10.0,Calm,Calm,-,N/A,,Clear,0,2012-10-05 15:15:00
11:35 AM,72.5,58.5,61,30.19,10.0,Calm,Calm,-,N/A,,Clear,0,2012-10-05 15:35:00
11:55 AM,73.9,58.5,58,30.17,5.0,Calm,Calm,-,N/A,,Haze,0,2012-10-05 15:55:00
12:55 PM,76.3,56.5,50,30.15,10.0,Calm,Calm,-,N/A,,Scattered Clouds,0,2012-10-05 16:55:00
1:15 PM,76.3,56.7,51,30.14,10.0,Calm,Calm,-,N/A,,Scattered Clouds,0,2012-10-05 17:15:00
1:35 PM,76.8,56.5,49,30.13,10.0,Calm,Calm,-,N/A,,Scattered Clouds,0,2012-10-05 17:35:00
1:55 PM,77.4,55.4,47,30.11,10.0,SW,3.5,-,N/A,,Clear,230,2012-10-05 17:55:00
2:35 PM,78.1,51.4,39,30.10,10.0,SW,6.9,-,N/A,,Clear,220,2012-10-05 18:35:00
2:55 PM,78.3,51.1,39,30.09,10.0,West,4.6,-,N/A,,Clear,260,2012-10-05 18:55:00
3:15 PM,78.8,50.9,38,30.08,10.0,Calm,Calm,-,N/A,,Clear,0,2012-10-05 19:15:00
3:35 PM,79.0,51.4,38,30.08,10.0,West,3.5,-,N/A,,Clear,260,2012-10-05 19:35:00
3:55 PM,78.8,53.8,42,30.07,10.0,SW,5.8,-,N/A,,Clear,220,2012-10-05 19:55:00
4:15 PM,78.8,54.0,42,30.06,10.0,WSW,4.6,-,N/A,,Clear,240,2012-10-05 20:15:00
4:35 PM,78.6,54.3,43,30.06,10.0,SSW,5.8,-,N/A,,Clear,210,2012-10-05 20:35:00
4:55 PM,78.6,54.1,43,30.06,10.0,SW,5.8,-,N/A,,Clear,220,2012-10-05 20:55:00
5:15 PM,78.3,54.7,44,30.05,10.0,SW,4.6,-,N/A,,Clear,230,2012-10-05 21:15:00
5:35 PM,77.9,54.5,44,30.05,10.0,Calm,Calm,-,N/A,,Clear,0,2012-10-05 21:35:00
5:55 PM,77.2,55.8,47,30.04,10.0,Calm,Calm,-,N/A,,Clear,0,2012-10-05 21:55:00
6:15 PM,75.6,58.1,55,30.04,10.0,Calm,Calm,-,N/A,,Clear,0,2012-10-05 22:15:00
6:35 PM,70.0,62.4,77,30.04,10.0,Calm,Calm,-,N/A,,Clear,0,2012-10-05 22:35:00
6:55 PM,66.2,62.1,86,30.04,10.0,Calm,Calm,-,N/A,,Clear,0,2012-10-05 22:55:00
7:15 PM,63.9,61.3,91,30.04,10.0,Calm,Calm,-,N/A,,Clear,0,2012-10-05 23:15:00
7:35 PM,62.1,60.3,94,30.04,7.0,Calm,Calm,-,N/A,,Clear,0,2012-10-05 23:35:00
7:55 PM,61.0,59.7,96,30.05,7.0,Calm,Calm,-,N/A,,Clear,0,2012-10-05 23:55:00
8:15 PM,59.7,58.8,97,30.05,7.0,Calm,Calm,-,N/A,,Clear,0,2012-10-06 00:15:00
8:35 PM,59.2,58.3,97,30.05,7.0,Calm,Calm,-,N/A,,Clear,0,2012-10-06 00:35:00
8:55 PM,59.0,58.3,97,30.05,7.0,Calm,Calm,-,N/A,,Clear,0,2012-10-06 00:55:00
9:15 PM,58.5,57.7,97,30.04,5.0,Calm,Calm,-,N/A,,Clear,0,2012-10-06 01:15:00
9:35 PM,57.7,57.0,97,30.04,5.0,Calm,Calm,-,N/A,,Clear,0,2012-10-06 01:35:00
9:55 PM,57.2,56.7,98,30.04,5.0,Calm,Calm,-,N/A,,Clear,0,2012-10-06 01:55:00
10:15 PM,56.7,56.3,99,30.04,4.0,Calm,Calm,-,N/A,,Clear,0,2012-10-06 02:15:00
10:35 PM,56.5,55.8,97,30.04,4.0,Calm,Calm,-,N/A,,Clear,0,2012-10-06 02:35:00
10:55 PM,56.3,55.9,99,30.03,4.0,Calm,Calm,-,N/A,,Clear,0,2012-10-06 02:55:00
11:35 PM,56.1,55.9,99,30.03,3.0,Calm,Calm,-,N/A,,Clear,0,2012-10-06 03:35:00
11:55 PM,55.4,55.0,99,30.03,4.0,Calm,Calm,-,N/A,,Clear,0,2012-10-06 03:55:00